Weather History for KPOB - July, 2013

Change the Weather History Date:

Monday, July 1, 2013

  Actual Average Record
Temperature  
Mean Temperature 77 °F -  
Max Temperature 84 °F 87 °F 103 °F (2012)
Min Temperature 70 °F 69 °F 60 °F (1988)
Cooling Degree Days 12    
Growing Degree Days 27 (Base 50)    
Moisture  
Dew Point 72 °F    
Average Humidity 90    
Maximum Humidity 100    
Minimum Humidity 66    
Precipitation  
Precipitation 1.43 in - - ()
Sea Level Pressure  
Sea Level Pressure 29.92 in    
Wind  
Wind Speed 5 mph (South)    
Max Wind Speed 21 mph    
Max Gust Speed 26 mph    
Visibility 9 miles    
Events Fog , Rain , Thunderstorm    
Averages and records for this station are not official NWS values.
T = Trace of Precipitation, MM = Missing Value Source: NWS Daily Summary

Daily Weather History Graph

Daily Weather History Graph

Search for Another Location

Airport or City:

Trip Planner

Search our weather history database for the weather conditions in past years. The results will help you decide how hot, cold, wet, or windy it might be!

Date:

Astronomy

Jul. 01, 2013 Rise Set
Actual Time 6:05 AM EDT 8:34 PM EDT
Civil Twilight 5:35 AM EDT 9:04 PM EDT
Nautical Twilight 4:59 AM EDT 9:40 PM EDT
Astronomical Twilight 4:18 AM EDT 10:21 PM EDT
Moon 1:25 AM EDT (7/1) 2:55 PM EDT (7/1)
Length of Visible Light 15h 28m
Length of Day
14h 29m
Waning Crescent, 35% of the Moon is Illuminated
Jul 1
Waning Crescent
Jul 8
New
Jul 15
First Quarter
Jul 22
Full
Jul 29
Last Quarter

Hourly Weather History & Observations

Time (EDT) Temp. Heat Index Dew Point Humidity Pressure Visibility Wind Dir Wind Speed Gust Speed Precip Events Conditions
12:01 AM 73.4 °F - 71.6 °F 94% 29.87 in 10.0 mi Calm Calm - N/A   Overcast
12:11 AM 73.4 °F - 71.6 °F 94% 29.87 in 10.0 mi Calm Calm - N/A   Mostly Cloudy
12:17 AM 73.4 °F - 71.6 °F 94% 29.87 in 10.0 mi Calm Calm - N/A   Overcast
12:22 AM 73.4 °F - 71.6 °F 94% 29.87 in 10.0 mi Calm Calm - N/A   Mostly Cloudy
12:45 AM 73.4 °F - 73.4 °F 100% 29.86 in 10.0 mi SSE 2.3 mph - N/A   Scattered Clouds
12:58 AM 73.9 °F - 72.9 °F 96% 29.86 in 10.0 mi South 3.5 mph - N/A   Scattered Clouds
1:58 AM 74.7 °F - 72.9 °F 94% 29.86 in 10.0 mi South 4.6 mph - N/A   Mostly Cloudy
2:28 AM 75.2 °F - 73.4 °F 94% 29.86 in 10.0 mi South 2.3 mph - N/A   Mostly Cloudy
2:53 AM 73.4 °F - 71.6 °F 94% 29.85 in 10.0 mi SSE 3.5 mph - N/A   Overcast
2:58 AM 74.1 °F - 72.3 °F 94% 29.86 in 10.0 mi SE 1.2 mph - N/A   Overcast
3:03 AM 73.4 °F - 71.6 °F 94% 29.85 in 10.0 mi South 2.3 mph - N/A   Overcast
3:08 AM 73.4 °F - 71.6 °F 94% 29.86 in 10.0 mi South 4.6 mph - N/A   Overcast
3:13 AM 73.4 °F - 71.6 °F 94% 29.86 in 10.0 mi South 3.5 mph - N/A   Overcast
3:18 AM 73.4 °F - 71.6 °F 94% 29.86 in 10.0 mi Variable 2.3 mph - N/A   Overcast
3:38 AM 73.4 °F - 71.6 °F 94% 29.86 in 10.0 mi Variable 3.5 mph - N/A   Overcast
3:43 AM 73.4 °F - 71.6 °F 94% 29.86 in 10.0 mi Variable 4.6 mph - N/A   Overcast
3:52 AM 73.4 °F - 71.6 °F 94% 29.86 in 10.0 mi SSW 4.6 mph - N/A   Overcast
3:58 AM 73.8 °F - 71.4 °F 92% 29.86 in 10.0 mi Variable 3.5 mph - N/A   Overcast
4:18 AM 73.4 °F - 71.6 °F 94% 29.85 in 10.0 mi SSW 5.8 mph - N/A   Overcast
4:58 AM 73.8 °F - 71.6 °F 93% 29.86 in 10.0 mi South 5.8 mph - N/A   Mostly Cloudy
5:03 AM 73.4 °F - 71.6 °F 94% 29.86 in 10.0 mi Variable 4.6 mph - N/A   Overcast
5:13 AM 73.4 °F - 71.6 °F 94% 29.86 in 10.0 mi South 4.6 mph - N/A   Overcast
5:18 AM 73.4 °F - 71.6 °F 94% 29.86 in 10.0 mi Variable 4.6 mph - N/A   Mostly Cloudy
5:38 AM 73.4 °F - 71.6 °F 94% 29.87 in 10.0 mi South 4.6 mph - N/A   Mostly Cloudy
5:43 AM 73.4 °F - 71.6 °F 94% 29.87 in 10.0 mi South 4.6 mph - N/A   Mostly Cloudy
5:58 AM 73.6 °F - 71.8 °F 94% 29.88 in 10.0 mi SSE 3.5 mph - N/A   Mostly Cloudy
6:03 AM 73.4 °F - 71.6 °F 94% 29.87 in 10.0 mi Variable 3.5 mph - N/A   Mostly Cloudy
6:07 AM 73.4 °F - 71.6 °F 94% 29.88 in 10.0 mi Variable 3.5 mph - N/A Rain Light Rain
6:17 AM 73.4 °F - 71.6 °F 94% 29.87 in 6.0 mi SSE 4.6 mph - N/A Rain Light Rain
6:22 AM 73.4 °F - 71.6 °F 94% 29.88 in 6.0 mi SSE 4.6 mph - N/A Rain Light Rain
6:27 AM 73.4 °F - 71.6 °F 94% 29.88 in 3.0 mi South 3.5 mph - N/A Rain Heavy Rain
6:32 AM 73.4 °F - 71.6 °F 94% 29.88 in 2.0 mi SSW 5.8 mph - N/A Rain Rain
6:37 AM 73.4 °F - 73.4 °F 100% 29.88 in 1.0 mi SSE 5.8 mph - N/A Rain Heavy Rain
6:42 AM 73.4 °F - 71.6 °F 94% 29.88 in 0.8 mi SSE 5.8 mph - N/A Rain Light Rain
6:47 AM 73.4 °F - 71.6 °F 94% 29.88 in 2.0 mi Variable 6.9 mph - N/A Rain Light Rain
6:52 AM 73.4 °F - 73.4 °F 100% 29.88 in 10.0 mi South 6.9 mph - N/A   Light Drizzle
6:55 AM 73.4 °F - 71.6 °F 94% 29.89 in 10.0 mi South 10.4 mph - N/A   Overcast
6:58 AM 73.4 °F - 71.6 °F 94% 29.90 in 10.0 mi South 12.7 mph - 0.28 in   Overcast
6:59 AM 73.4 °F - 71.6 °F 94% 29.89 in 10.0 mi South 12.7 mph 18.4 mph N/A   Light Drizzle
7:04 AM 73.4 °F - 71.6 °F 94% 29.89 in 10.0 mi South 10.4 mph 18.4 mph N/A   Light Drizzle
7:05 AM 73.4 °F - 71.6 °F 94% 29.89 in 10.0 mi South 9.2 mph 18.4 mph N/A   Overcast
7:15 AM 73.4 °F - 71.6 °F 94% 29.92 in 2.5 mi West 18.4 mph 24.2 mph N/A   Overcast
7:16 AM 73.4 °F - 71.6 °F 94% 29.92 in 2.5 mi WSW 20.7 mph 24.2 mph N/A Rain Rain
7:17 AM 73.4 °F - 69.8 °F 88% 29.92 in 2.0 mi WSW 18.4 mph 24.2 mph N/A Rain Rain
7:22 AM 71.6 °F - 69.8 °F 94% 29.93 in 0.8 mi WSW 18.4 mph 26.5 mph N/A Rain Heavy Rain
7:27 AM 71.6 °F - 69.8 °F 94% 29.91 in 0.5 mi SW 6.9 mph 26.5 mph N/A Fog , Rain Heavy Rain
7:32 AM 71.6 °F - 69.8 °F 94% 29.91 in 0.5 mi SSW 5.8 mph - N/A Fog , Rain Heavy Rain
7:37 AM 71.6 °F - 69.8 °F 94% 29.91 in 2.5 mi Variable 4.6 mph - N/A Rain Light Rain
7:42 AM 71.6 °F - 69.8 °F 94% 29.91 in 7.0 mi SE 6.9 mph - N/A Rain Light Rain
7:49 AM 71.6 °F - 69.8 °F 94% 29.91 in 10.0 mi SE 4.6 mph - N/A   Mostly Cloudy
7:58 AM 70.9 °F - 69.4 °F 95% 29.92 in 10.0 mi SE 3.5 mph - 0.45 in   Mostly Cloudy
8:58 AM 73.2 °F - 70.3 °F 91% 29.95 in 10.0 mi SW 6.9 mph - N/A   Mostly Cloudy
9:53 AM 73.4 °F - 69.8 °F 88% 29.94 in 10.0 mi WSW 6.9 mph - N/A Rain Light Rain
9:58 AM 74.1 °F - 70.5 °F 88% 29.95 in 10.0 mi SW 6.9 mph - 0.00 in   Light Drizzle
10:13 AM 75.2 °F - 69.8 °F 83% 29.93 in 10.0 mi WSW 4.6 mph - N/A   Mostly Cloudy
10:53 AM 77.0 °F - 69.8 °F 78% 29.93 in 10.0 mi WNW 5.8 mph - N/A   Mostly Cloudy
10:58 AM 77.5 °F - 70.3 °F 78% 29.94 in 10.0 mi West 4.6 mph - 0.00 in   Mostly Cloudy
11:25 AM 78.8 °F - 69.8 °F 74% 29.94 in 10.0 mi Variable 4.6 mph - N/A   Partly Cloudy
11:55 AM 78.8 °F - 69.8 °F 74% 29.93 in 10.0 mi Calm Calm - N/A   Mostly Cloudy
11:58 AM 78.8 °F - 69.8 °F 74% 29.94 in 10.0 mi Variable 1.2 mph - N/A   Mostly Cloudy
12:43 PM 80.6 °F 83.9 °F 69.8 °F 70% 29.93 in 10.0 mi SE 4.6 mph - N/A   Mostly Cloudy
12:58 PM 79.9 °F - 70.7 °F 73% 29.94 in 10.0 mi Variable 5.8 mph - N/A   Overcast
1:48 PM 78.8 °F - 71.6 °F 78% 29.94 in 10.0 mi Variable 4.6 mph - N/A   Overcast
1:58 PM 79.7 °F - 72.7 °F 79% 29.95 in 10.0 mi Calm Calm - N/A   Overcast
2:03 PM 78.8 °F - 73.4 °F 83% 29.93 in 10.0 mi Variable 3.5 mph - N/A   Light Drizzle
2:09 PM 78.8 °F - 73.4 °F 83% 29.93 in 10.0 mi South 4.6 mph - N/A   Mostly Cloudy
2:14 PM 80.6 °F 85.4 °F 73.4 °F 79% 29.93 in 10.0 mi Variable 5.8 mph - N/A   Mostly Cloudy
2:24 PM 80.6 °F 85.4 °F 73.4 °F 79% 29.92 in 10.0 mi South 9.2 mph - N/A   Mostly Cloudy
2:58 PM 82.2 °F 87.6 °F 72.9 °F 73% 29.93 in 10.0 mi SSW 5.8 mph - 0.00 in   Mostly Cloudy
3:13 PM 84.2 °F 90.9 °F 73.4 °F 70% 29.91 in 10.0 mi Variable 4.6 mph - N/A   Mostly Cloudy
3:33 PM 82.4 °F 88.2 °F 73.4 °F 74% 29.92 in 10.0 mi South 6.9 mph - N/A   Mostly Cloudy
3:53 PM 84.2 °F 90.9 °F 73.4 °F 70% 29.92 in 10.0 mi Variable 5.8 mph - N/A   Mostly Cloudy
3:58 PM 83.8 °F 90.1 °F 73.2 °F 70% 29.93 in 10.0 mi South 9.2 mph - N/A   Mostly Cloudy
4:08 PM 84.2 °F 90.9 °F 73.4 °F 70% 29.92 in 10.0 mi South 9.2 mph - N/A   Mostly Cloudy
4:13 PM 84.2 °F 89.6 °F 71.6 °F 66% 29.92 in 10.0 mi SSE 8.1 mph - N/A   Mostly Cloudy
4:48 PM 82.4 °F 88.2 °F 73.4 °F 74% 29.92 in 10.0 mi SE 9.2 mph - N/A   Mostly Cloudy
4:58 PM 81.9 °F 87.7 °F 73.9 °F 77% 29.93 in 10.0 mi SSE 13.8 mph 18.4 mph N/A   Mostly Cloudy
5:01 PM 82.4 °F 88.2 °F 73.4 °F 74% 29.93 in 10.0 mi SSE 11.5 mph 19.6 mph N/A Rain , Thunderstorm Light Rain
5:02 PM 82.4 °F 88.2 °F 73.4 °F 74% 29.93 in 10.0 mi South 9.2 mph 19.6 mph N/A Rain , Thunderstorm Light Rain
5:17 PM 78.8 °F - 75.2 °F 89% 29.93 in 4.0 mi SSE 8.1 mph - N/A Rain , Thunderstorm Light Rain
5:22 PM 78.8 °F - 75.2 °F 89% 29.95 in 1.5 mi SSW 9.2 mph - N/A Rain , Thunderstorm Heavy Rain
5:27 PM 77.0 °F - 75.2 °F 94% 29.95 in 1.2 mi SW 6.9 mph - N/A Rain Rain
5:32 PM 77.0 °F - 75.2 °F 94% 29.94 in 4.0 mi South 5.8 mph - N/A Rain Light Rain
5:37 PM 77.0 °F - 75.2 °F 94% 29.94 in 9.0 mi South 5.8 mph - N/A Rain Light Rain
5:42 PM 77.0 °F - 75.2 °F 94% 29.94 in 10.0 mi South 4.6 mph - N/A Rain Light Rain
5:47 PM 77.0 °F - 75.2 °F 94% 29.94 in 10.0 mi Variable 5.8 mph - N/A Rain Light Rain
5:49 PM 77.0 °F - 75.2 °F 94% 29.94 in 10.0 mi Variable 4.6 mph - N/A   Mostly Cloudy
5:54 PM 77.0 °F - 75.2 °F 94% 29.94 in 10.0 mi South 5.8 mph - N/A   Mostly Cloudy
5:58 PM 77.2 °F - 74.7 °F 92% 29.95 in 10.0 mi South 8.1 mph - 0.24 in   Scattered Clouds
6:32 PM 77.0 °F - 75.2 °F 94% 29.95 in 10.0 mi South 5.8 mph - N/A Rain Light Rain
6:41 PM 77.0 °F - 75.2 °F 94% 29.95 in 10.0 mi South 8.1 mph - N/A Rain Light Rain
6:58 PM 77.0 °F - 74.5 °F 92% 29.97 in 6.0 mi South 8.1 mph - 0.02 in Rain Light Rain
7:08 PM 77.0 °F - 75.2 °F 94% 29.97 in 10.0 mi South 6.9 mph - N/A Rain Light Rain
7:13 PM 77.0 °F - 75.2 °F 94% 29.97 in 10.0 mi South 5.8 mph - N/A Rain Light Rain
7:18 PM 77.0 °F - 73.4 °F 89% 29.97 in 9.0 mi South 6.9 mph - N/A Rain Light Rain
7:23 PM 77.0 °F - 73.4 °F 89% 29.97 in 9.0 mi SSW 10.4 mph - N/A Rain Light Rain
7:24 PM 77.0 °F - 73.4 °F 89% 29.97 in 9.0 mi SSW 6.9 mph - N/A Rain Light Rain
7:44 PM 75.2 °F - 73.4 °F 94% 29.97 in 10.0 mi South 5.8 mph - N/A Rain Light Rain
7:49 PM 75.2 °F - 73.4 °F 94% 29.97 in 10.0 mi South 5.8 mph - N/A Rain Light Rain
7:58 PM 75.9 °F - 74.3 °F 95% 29.98 in 10.0 mi South 4.6 mph - 0.06 in Rain Light Rain
8:08 PM 75.2 °F - 73.4 °F 94% 29.96 in 5.0 mi Variable 1.2 mph - N/A Rain Rain
8:18 PM 75.2 °F - 73.4 °F 94% 29.97 in 5.0 mi Variable 5.8 mph - N/A Rain Rain
8:38 PM 75.2 °F - 73.4 °F 94% 29.94 in 7.0 mi Variable 4.6 mph - N/A Rain Rain
8:43 PM 75.2 °F - 73.4 °F 94% 29.95 in 6.0 mi Variable 3.5 mph - N/A Rain Rain
8:58 PM 75.7 °F - 73.6 °F 93% 29.97 in 6.0 mi Variable 6.9 mph - 0.18 in Rain Rain
9:03 PM 75.2 °F - 73.4 °F 94% 29.96 in 7.0 mi Variable 5.8 mph - N/A Rain Light Rain
9:18 PM 75.2 °F - 73.4 °F 94% 29.97 in 10.0 mi SSW 4.6 mph - N/A Rain Light Rain
9:23 PM 75.2 °F - 73.4 °F 94% 29.97 in 10.0 mi Variable 6.9 mph - N/A Rain Light Rain
9:45 PM 75.2 °F - 73.4 °F 94% 29.98 in 10.0 mi South 8.1 mph 21.9 mph N/A Rain Light Rain
9:50 PM 75.2 °F - 73.4 °F 94% 29.98 in 10.0 mi SSW 10.4 mph 21.9 mph N/A Rain Light Rain
9:55 PM 75.2 °F - 73.4 °F 94% 29.99 in 9.0 mi SSW 12.7 mph 19.6 mph N/A Rain Rain
9:58 PM 75.7 °F - 73.6 °F 93% 30.00 in 9.0 mi SSW 10.4 mph 19.6 mph 0.07 in Rain Rain
10:38 PM 75.2 °F - 73.4 °F 94% 30.00 in 9.0 mi SW 6.9 mph - N/A Rain Rain
10:53 PM 75.2 °F - 73.4 °F 94% 30.01 in 10.0 mi SSW 9.2 mph - N/A Rain Light Rain
10:58 PM 75.2 °F - 73.4 °F 94% 30.01 in 10.0 mi SW 9.2 mph - 0.12 in Rain Light Rain
11:00 PM 75.2 °F - 73.4 °F 94% 30.01 in 10.0 mi SW 13.8 mph 17.3 mph N/A Rain Light Rain
11:05 PM 75.2 °F - 73.4 °F 94% 30.00 in 10.0 mi SSW 13.8 mph 17.3 mph N/A Rain Light Rain
11:10 PM 75.2 °F - 73.4 °F 94% 30.00 in 10.0 mi SSW 9.2 mph 17.3 mph N/A Rain Light Rain
11:15 PM 75.2 °F - 73.4 °F 94% 30.00 in 10.0 mi SSW 8.1 mph - N/A   Light Drizzle
11:19 PM 75.2 °F - 73.4 °F 94% 30.01 in 10.0 mi SW 9.2 mph - N/A   Scattered Clouds
11:58 PM 74.5 °F - 72.3 °F 93% 30.01 in 10.0 mi South 9.2 mph - 0.01 in   Scattered Clouds